LPP3167 SUMU-SABE

Flight info

Callsign LPP3167
Flight time 0h 27m
Altitude 28000
Route DAGUS DCT UGIMI UGIMI8Q
Aircraft B738/M-SDE2E3FGHIRWXY/LB1

Departure

Time 2026-04-26 00:16
Airport Carrasco General Cesáreo L. Berisso International Airport (SUMU)

Arrival

Time 2026-04-26 00:43
Airport Aeroparque Jorge Newbery (SABE)
Time Latitude Longitude Altitude Speed Heading
2026-04-26 00:00 -34.83589 -56.01718 77 ft 0 kts 143°
2026-04-26 00:08 -34.83585 -56.01723 77 ft 3 kts 143°
2026-04-26 00:08 -34.83547 -56.01757 79 ft 8 kts 143°
2026-04-26 00:09 -34.83521 -56.01796 80 ft 3 kts 85°
2026-04-26 00:09 -34.83528 -56.01819 79 ft 0 kts 52°
2026-04-26 00:11 -34.83499 -56.01773 80 ft 8 kts 42°
2026-04-26 00:11 -34.83450 -56.01767 81 ft 7 kts 335°
2026-04-26 00:11 -34.83391 -56.01817 83 ft 13 kts 323°
2026-04-26 00:11 -34.83296 -56.01842 83 ft 16 kts 39°
2026-04-26 00:12 -34.83221 -56.01729 86 ft 17 kts 56°
2026-04-26 00:12 -34.83145 -56.01601 90 ft 18 kts 53°
2026-04-26 00:12 -34.83068 -56.01475 94 ft 19 kts 53°
2026-04-26 00:12 -34.82988 -56.01345 99 ft 19 kts 53°
2026-04-26 00:13 -34.82916 -56.01228 102 ft 15 kts 57°
2026-04-26 00:13 -34.82854 -56.01147 103 ft 9 kts 24°
2026-04-26 00:13 -34.82812 -56.01141 103 ft 0 kts 356°
2026-04-26 00:14 -34.82771 -56.01146 103 ft 14 kts 353°
2026-04-26 00:15 -34.82717 -56.01232 101 ft 15 kts 250°
2026-04-26 00:15 -34.82785 -56.01352 99 ft 26 kts 233°
2026-04-26 00:15 -34.83068 -56.01815 84 ft 108 kts 233°
2026-04-26 00:15 -34.83662 -56.02793 75 ft 174 kts 233°
2026-04-26 00:16 -34.84406 -56.04025 676 ft 189 kts 232°
2026-04-26 00:16 -34.85017 -56.05443 1419 ft 198 kts 262°
2026-04-26 00:16 -34.85012 -56.07127 2096 ft 204 kts 274°
2026-04-26 00:16 -34.85049 -56.08890 2618 ft 217 kts 264°
2026-04-26 00:17 -34.85307 -56.10751 3152 ft 229 kts 259°
2026-04-26 00:17 -34.85645 -56.12659 3772 ft 236 kts 258°
2026-04-26 00:17 -34.85998 -56.14622 4468 ft 239 kts 258°
2026-04-26 00:17 -34.86343 -56.16601 4902 ft 242 kts 258°
2026-04-26 00:18 -34.86686 -56.18609 4956 ft 242 kts 258°
2026-04-26 00:18 -34.87026 -56.20622 4946 ft 248 kts 258°
2026-04-26 00:18 -34.87380 -56.22718 5576 ft 257 kts 258°
2026-04-26 00:18 -34.87730 -56.24795 6537 ft 253 kts 258°
2026-04-26 00:19 -34.88101 -56.26983 6301 ft 269 kts 258°
2026-04-26 00:19 -34.88471 -56.29176 6276 ft 256 kts 258°
2026-04-26 00:19 -34.88817 -56.31229 6514 ft 246 kts 258°
2026-04-26 00:19 -34.89158 -56.33259 7156 ft 246 kts 258°
2026-04-26 00:20 -34.89498 -56.35291 7897 ft 243 kts 258°
2026-04-26 00:20 -34.89832 -56.37282 8634 ft 240 kts 258°
2026-04-26 00:20 -34.90159 -56.39232 9295 ft 239 kts 259°
2026-04-26 00:20 -34.90496 -56.41249 9788 ft 246 kts 259°
2026-04-26 00:21 -34.90842 -56.43318 10289 ft 252 kts 259°
2026-04-26 00:21 -34.91193 -56.45419 10788 ft 258 kts 259°
2026-04-26 00:21 -34.91555 -56.47575 11286 ft 263 kts 259°
2026-04-26 00:21 -34.91916 -56.49740 11887 ft 263 kts 259°
2026-04-26 00:22 -34.92279 -56.51918 12508 ft 263 kts 259°
2026-04-26 00:22 -34.92643 -56.54100 13130 ft 264 kts 260°
2026-04-26 00:22 -34.93002 -56.56267 13747 ft 264 kts 260°
2026-04-26 00:22 -34.93366 -56.58460 14381 ft 263 kts 261°
2026-04-26 00:23 -34.93723 -56.60615 15010 ft 262 kts 261°
2026-04-26 00:23 -34.94079 -56.62769 15636 ft 260 kts 261°
2026-04-26 00:23 -34.94435 -56.64919 16268 ft 258 kts 261°
2026-04-26 00:23 -34.94785 -56.67039 16903 ft 256 kts 261°
2026-04-26 00:24 -34.95135 -56.69161 17552 ft 252 kts 261°
2026-04-26 00:24 -34.95476 -56.71229 18180 ft 248 kts 262°
2026-04-26 00:24 -34.95810 -56.73259 18815 ft 243 kts 262°
2026-04-26 00:24 -34.96137 -56.75248 19460 ft 238 kts 262°
2026-04-26 00:25 -34.96458 -56.77189 20029 ft 234 kts 262°
2026-04-26 00:25 -34.96786 -56.79195 20138 ft 249 kts 262°
2026-04-26 00:25 -34.97130 -56.81311 20133 ft 266 kts 262°
2026-04-26 00:25 -34.97509 -56.83628 19964 ft 290 kts 261°
2026-04-26 00:26 -34.97915 -56.86100 19931 ft 307 kts 261°
2026-04-26 00:26 -34.98230 -56.88772 19926 ft 323 kts 266°
2026-04-26 00:26 -34.98331 -56.91541 19929 ft 338 kts 270°
2026-04-26 00:26 -34.98332 -56.94484 19926 ft 353 kts 271°
2026-04-26 00:27 -34.98300 -56.97530 19926 ft 369 kts 271°
2026-04-26 00:27 -34.98265 -57.00715 19925 ft 383 kts 271°
2026-04-26 00:27 -34.98019 -57.04015 19928 ft 397 kts 282°
2026-04-26 00:27 -34.97149 -57.07280 19927 ft 407 kts 290°
2026-04-26 00:28 -34.95983 -57.10415 19919 ft 408 kts 294°
2026-04-26 00:28 -34.94706 -57.13517 19927 ft 408 kts 295°
2026-04-26 00:28 -34.93432 -57.16579 19924 ft 409 kts 295°
2026-04-26 00:28 -34.92168 -57.19667 19928 ft 408 kts 294°
2026-04-26 00:29 -34.90915 -57.22798 19929 ft 408 kts 294°
2026-04-26 00:29 -34.89717 -57.25856 19915 ft 399 kts 293°
2026-04-26 00:29 -34.88563 -57.28885 19929 ft 386 kts 292°
2026-04-26 00:29 -34.87135 -57.33099 19929 ft 388 kts 290°
2026-04-26 00:30 -34.81282 -57.51521 19937 ft 390 kts 289°
2026-04-26 00:30 -34.79374 -57.57629 19926 ft 389 kts 289°
2026-04-26 00:30 -34.76048 -57.68094 19929 ft 390 kts 289°
2026-04-26 00:30 -34.73034 -57.77460 19934 ft 390 kts 290°
2026-04-26 00:31 -34.71973 -57.80694 19937 ft 385 kts 290°
2026-04-26 00:31 -34.70948 -57.83799 19932 ft 377 kts 290°
2026-04-26 00:31 -34.67609 -57.93899 19945 ft 371 kts 290°
2026-04-26 00:31 -34.66658 -57.96785 19933 ft 365 kts 290°
2026-04-26 00:32 -34.65734 -57.99603 19933 ft 359 kts 289°
2026-04-26 00:32 -34.64819 -58.02398 19763 ft 348 kts 289°
2026-04-26 00:32 -34.63056 -58.07733 18376 ft 339 kts 291°
2026-04-26 00:33 -34.62027 -58.10273 17602 ft 335 kts 295°
2026-04-26 00:33 -34.60894 -58.12728 16841 ft 331 kts 297°
2026-04-26 00:33 -34.59765 -58.15086 16111 ft 325 kts 297°
2026-04-26 00:33 -34.58640 -58.17420 15346 ft 320 kts 297°
2026-04-26 00:34 -34.57528 -58.19726 14557 ft 315 kts 297°
2026-04-26 00:34 -34.56440 -58.21991 13756 ft 311 kts 297°
2026-04-26 00:34 -34.55364 -58.24235 13022 ft 307 kts 297°
2026-04-26 00:34 -34.54298 -58.26470 12264 ft 304 kts 297°
2026-04-26 00:35 -34.53249 -58.28684 11297 ft 309 kts 298°
2026-04-26 00:35 -34.52193 -58.30945 10316 ft 313 kts 298°
2026-04-26 00:35 -34.51128 -58.33255 9328 ft 317 kts 298°
2026-04-26 00:35 -34.50076 -58.35568 8349 ft 319 kts 297°
2026-04-26 00:36 -34.49017 -58.37921 7362 ft 321 kts 297°
2026-04-26 00:36 -34.47957 -58.40301 6368 ft 322 kts 298°
2026-04-26 00:36 -34.46902 -58.42695 5374 ft 323 kts 297°
2026-04-26 00:36 -34.45864 -58.45064 4395 ft 324 kts 297°
2026-04-26 00:37 -34.44817 -58.47452 3407 ft 324 kts 297°
2026-04-26 00:37 -34.43764 -58.49850 2757 ft 312 kts 297°
2026-04-26 00:37 -34.43054 -58.52194 2749 ft 282 kts 278°
2026-04-26 00:37 -34.42747 -58.54436 2721 ft 265 kts 288°
2026-04-26 00:38 -34.42174 -58.56438 2925 ft 242 kts 279°
2026-04-26 00:38 -34.42311 -58.58420 2976 ft 234 kts 243°
2026-04-26 00:38 -34.43316 -58.59878 2988 ft 217 kts 218°
2026-04-26 00:38 -34.44492 -58.60863 2962 ft 197 kts 212°
2026-04-26 00:39 -34.45771 -58.61353 2809 ft 197 kts 174°
2026-04-26 00:39 -34.46958 -58.60639 2761 ft 197 kts 128°
2026-04-26 00:39 -34.47432 -58.59081 2830 ft 198 kts 97°
2026-04-26 00:39 -34.47609 -58.57460 3146 ft 195 kts 97°
2026-04-26 00:40 -34.47944 -58.55850 2829 ft 199 kts 114°
2026-04-26 00:40 -34.48648 -58.54429 2397 ft 194 kts 126°
2026-04-26 00:40 -34.49410 -58.53165 2093 ft 177 kts 126°
2026-04-26 00:40 -34.50071 -58.51992 1867 ft 160 kts 124°
2026-04-26 00:41 -34.50668 -58.50904 1674 ft 154 kts 124°
2026-04-26 00:41 -34.51246 -58.49821 1452 ft 153 kts 127°
2026-04-26 00:41 -34.51876 -58.48785 1272 ft 150 kts 126°
2026-04-26 00:41 -34.52464 -58.47725 1083 ft 154 kts 125°
2026-04-26 00:42 -34.53053 -58.46673 778 ft 145 kts 125°
2026-04-26 00:42 -34.53634 -58.45658 628 ft 148 kts 125°
2026-04-26 00:42 -34.54213 -58.44616 426 ft 148 kts 125°
2026-04-26 00:42 -34.54800 -58.43596 253 ft 148 kts 126°
2026-04-26 00:43 -34.55362 -58.42571 73 ft 146 kts 124°
2026-04-26 00:43 -34.55902 -58.41620 29 ft 109 kts 123°
2026-04-26 00:43 -34.56172 -58.41127 34 ft 32 kts 122°
2026-04-26 00:43 -34.56168 -58.41003 31 ft 0 kts 58°
2026-04-26 00:45 -34.56142 -58.40975 30 ft 10 kts
2026-04-26 00:46 -34.56092 -58.41025 30 ft 9 kts 308°
2026-04-26 00:46 -34.56048 -58.41095 31 ft 15 kts 307°
2026-04-26 00:46 -34.55971 -58.41218 31 ft 18 kts 307°
2026-04-26 00:46 -34.55903 -58.41294 29 ft 8 kts 25°
2026-04-26 00:47 -34.55838 -58.41286 28 ft 11 kts 325°
2026-04-26 00:47 -34.55790 -58.41367 28 ft 11 kts 303°
2026-04-26 00:47 -34.55750 -58.41445 28 ft 9 kts 297°
2026-04-26 00:47 -34.55718 -58.41453 28 ft 4 kts 21°
2026-04-26 00:48 -34.55699 -58.41445 27 ft 0 kts 16°